TimeEST,TemperatureF,Dew PointF,Humidity,Sea Level PressureIn,VisibilityMPH,Wind Direction,Wind SpeedMPH,Gust SpeedMPH,PrecipitationIn,Events,Conditions,WindDirDegrees,DateUTC
12:51 AM,23.0,17.6,80,30.20,10.0,NNW,3.5,-,N/A,,Overcast,340,2012-12-12 05:51:00
12:54 AM,23.0,17.1,78,30.22,10.0,Calm,Calm,-,N/A,,Overcast,0,2012-12-12 05:54:00
1:43 AM,23.0,17.6,80,30.22,10.0,Calm,Calm,-,N/A,,Scattered Clouds,0,2012-12-12 06:43:00
1:54 AM,23.0,17.1,78,30.23,10.0,Calm,Calm,-,N/A,,Partly Cloudy,0,2012-12-12 06:54:00
2:54 AM,21.9,18.0,85,30.25,10.0,Calm,Calm,-,N/A,,Partly Cloudy,0,2012-12-12 07:54:00
3:54 AM,19.9,17.1,89,30.26,10.0,SE,3.5,-,N/A,,Clear,130,2012-12-12 08:54:00
4:54 AM,19.9,17.1,89,30.27,10.0,East,3.5,-,N/A,,Clear,80,2012-12-12 09:54:00
5:54 AM,19.9,16.0,85,30.28,10.0,Calm,Calm,-,N/A,,Clear,0,2012-12-12 10:54:00
6:54 AM,19.4,15.8,86,30.30,10.0,Calm,Calm,-,N/A,,Clear,0,2012-12-12 11:54:00
7:54 AM,21.0,18.0,88,30.32,10.0,ESE,3.5,-,N/A,,Scattered Clouds,120,2012-12-12 12:54:00
8:54 AM,24.1,19.0,81,30.33,10.0,Calm,Calm,-,N/A,,Scattered Clouds,0,2012-12-12 13:54:00
9:54 AM,28.0,21.0,75,30.34,10.0,SSW,6.9,-,N/A,,Scattered Clouds,200,2012-12-12 14:54:00
10:54 AM,32.0,21.9,66,30.33,10.0,SSW,6.9,-,N/A,,Mostly Cloudy,200,2012-12-12 15:54:00
11:40 AM,32.0,23.0,69,30.32,1.5,WSW,5.8,-,0.00,Snow,Light Snow,240,2012-12-12 16:40:00
11:50 AM,32.0,24.8,75,30.32,3.0,SW,5.8,-,0.00,Snow,Light Snow,230,2012-12-12 16:50:00
11:51 AM,32.0,25.0,75,30.33,3.0,SW,4.6,-,0.00,Snow,Light Snow,230,2012-12-12 16:51:00
12:07 PM,33.8,24.8,70,30.30,9.0,South,8.1,-,0.00,Snow,Light Snow,180,2012-12-12 17:07:00
12:54 PM,34.0,24.1,67,30.32,10.0,SSW,8.1,-,0.00,,Scattered Clouds,210,2012-12-12 17:54:00
1:54 PM,36.0,25.0,64,30.32,10.0,South,10.4,-,N/A,,Scattered Clouds,190,2012-12-12 18:54:00
2:54 PM,37.0,24.1,59,30.33,10.0,SSW,5.8,-,N/A,,Partly Cloudy,200,2012-12-12 19:54:00
3:54 PM,35.1,25.0,67,30.34,10.0,South,4.6,-,N/A,,Mostly Cloudy,190,2012-12-12 20:54:00
4:54 PM,34.0,25.0,70,30.36,9.0,South,5.8,-,0.00,,Mostly Cloudy,180,2012-12-12 21:54:00
5:54 PM,32.0,24.1,73,30.36,10.0,Calm,Calm,-,N/A,,Mostly Cloudy,0,2012-12-12 22:54:00
6:54 PM,32.0,24.1,73,30.36,10.0,South,3.5,-,N/A,,Scattered Clouds,190,2012-12-12 23:54:00
7:54 PM,32.0,24.1,73,30.37,10.0,SSW,5.8,-,N/A,,Mostly Cloudy,200,2012-12-13 00:54:00
8:54 PM,33.1,23.0,66,30.38,10.0,SW,5.8,-,N/A,,Overcast,220,2012-12-13 01:54:00
9:54 PM,33.1,23.0,66,30.39,10.0,SSW,5.8,-,N/A,,Overcast,200,2012-12-13 02:54:00
10:54 PM,33.1,24.1,70,30.39,10.0,South,3.5,-,N/A,,Overcast,190,2012-12-13 03:54:00
11:54 PM,30.9,25.0,79,30.39,10.0,Calm,Calm,-,N/A,,Overcast,0,2012-12-13 04:54:00